Hot Springs, VA

3:08 PM EST on January 19, 2017 (GMT -0500)
Ingalls

Weather History for KHSP - May, 2013

Change the Weather History Date:

Tuesday, May 7, 2013

  Actual Average Record
Temperature  
Mean Temperature 48 °F -  
Max Temperature 51 °F 62 °F 80 °F (2000)
Min Temperature 44 °F 46 °F 39 °F (1997)
Degree Days  
Heating Degree Days 18    
Moisture  
Dew Point 48 °F    
Average Humidity 99    
Maximum Humidity 100    
Minimum Humidity 93    
Precipitation  
Precipitation 0.85 in - - ()
Sea Level Pressure  
Sea Level Pressure 29.98 in    
Wind  
Wind Speed 8 mph (ENE)    
Max Wind Speed 16 mph    
Max Gust Speed 28 mph    
Visibility 3 miles    
Events Fog , Rain , Thunderstorm    
Averages and records for this station are not official NWS values.
T = Trace of Precipitation, MM = Missing Value Source: NWS Daily Summary

Daily Weather History Graph

Daily Weather History Graph

Search for Another Location

Airport or City:

Trip Planner

Search our weather history database for the weather conditions in past years. The results will help you decide how hot, cold, wet, or windy it might be!

Date:

Astronomy

May. 07, 2013 Rise Set
Actual Time 6:16 AM EDT 8:15 PM EDT
Civil Twilight 5:47 AM EDT 8:44 PM EDT
Nautical Twilight 5:12 AM EDT 9:19 PM EDT
Astronomical Twilight 4:34 AM EDT 9:57 PM EDT
Moon 4:47 AM EDT (5/7) 6:15 PM EDT (5/7)
Length of Visible Light 14h 57m
Length of Day
13h 59m
Waning Crescent, 5% of the Moon is Illuminated
May 7
Waning Crescent
May 9
New
May 18
First Quarter
May 25
Full
May 31
Last Quarter

Hourly Weather History & Observations

Time (EDT) Temp. Windchill Dew Point Humidity Pressure Visibility Wind Dir Wind Speed Gust Speed Precip Events Conditions
12:15 AM 48.2 °F - 48.2 °F 100% 30.00 in 0.2 mi East 10.4 mph - 0.02 in Rain Light Rain
12:35 AM 48.2 °F - 48.2 °F 100% 30.00 in 0.2 mi East 9.2 mph 16.1 mph 0.02 in Rain Light Rain
12:55 AM 48.2 °F - 48.2 °F 100% 30.00 in 0.2 mi East 6.9 mph - N/A Rain Light Rain
1:15 AM 48.2 °F - 48.2 °F 100% 29.99 in 0.2 mi East 8.1 mph - N/A Rain Light Rain
1:35 AM 48.2 °F - 48.2 °F 100% 29.99 in 0.2 mi East 8.1 mph - N/A Rain Light Rain
1:55 AM 48.2 °F - 48.2 °F 100% 30.00 in 0.2 mi East 9.2 mph - N/A Rain Light Rain
2:15 AM 48.2 °F - 48.2 °F 100% 29.99 in 0.2 mi East 8.1 mph - N/A Rain Light Rain
2:35 AM 48.2 °F - 48.2 °F 100% 29.99 in 0.2 mi East 4.6 mph - N/A Rain Light Rain
2:55 AM 48.2 °F - 48.2 °F 100% 29.99 in 0.2 mi ENE 8.1 mph - N/A Rain Light Rain
3:15 AM 48.2 °F - 48.2 °F 100% 29.99 in 0.2 mi ENE 8.1 mph - N/A Rain Light Rain
3:35 AM 48.2 °F - 48.2 °F 100% 29.98 in 0.2 mi East 5.8 mph - 0.05 in Rain Light Rain
3:55 AM 48.2 °F - 48.2 °F 100% 29.98 in 0.2 mi East 6.9 mph - 0.01 in Rain Light Rain
4:15 AM 48.2 °F - 48.2 °F 100% 29.98 in 0.2 mi East 8.1 mph - 0.01 in Rain Light Rain
4:35 AM 48.2 °F - 48.2 °F 100% 29.98 in 0.2 mi East 6.9 mph - 0.01 in Rain Light Rain
4:55 AM 48.2 °F - 48.2 °F 100% 29.98 in 0.2 mi East 9.2 mph - N/A Rain Light Rain
5:15 AM 48.2 °F - 48.2 °F 100% 29.97 in 0.2 mi East 6.9 mph - N/A Rain Light Rain
5:35 AM 48.2 °F - 48.2 °F 100% 29.97 in 0.2 mi East 5.8 mph - N/A Rain Light Rain
6:15 AM 50.0 °F - 50.0 °F 100% 29.98 in 0.2 mi East 6.9 mph - N/A Rain Light Rain
6:35 AM 50.0 °F - 50.0 °F 100% 29.98 in 0.2 mi East 6.9 mph - N/A Rain Light Rain
6:55 AM 50.0 °F - 50.0 °F 100% 29.98 in 0.2 mi East 8.1 mph - N/A Rain , Thunderstorm Light Thunderstorms and Rain
7:15 AM 50.0 °F - 50.0 °F 100% 29.98 in 0.2 mi ENE 9.2 mph 16.1 mph N/A Rain Light Rain
7:35 AM 50.0 °F - 50.0 °F 100% 29.98 in 0.2 mi East 12.7 mph 19.6 mph N/A Rain Light Rain
7:55 AM 50.0 °F - 50.0 °F 100% 29.98 in 0.2 mi East 11.5 mph 19.6 mph N/A Rain , Thunderstorm Light Thunderstorms and Rain
8:15 AM 50.0 °F - 50.0 °F 100% 29.98 in 0.2 mi ENE 12.7 mph 21.9 mph N/A Rain Light Rain
8:35 AM 50.0 °F - 50.0 °F 100% 29.98 in 0.2 mi ENE 12.7 mph 20.7 mph N/A Rain Light Rain
8:55 AM 50.0 °F - 50.0 °F 100% 29.98 in 0.2 mi ENE 11.5 mph 21.9 mph N/A Rain , Thunderstorm Light Thunderstorms and Rain
9:15 AM 51.8 °F - 51.8 °F 100% 29.98 in 0.2 mi East 15.0 mph 25.3 mph N/A Rain , Thunderstorm Light Thunderstorms and Rain
9:35 AM 51.8 °F - 51.8 °F 100% 29.98 in 0.2 mi ENE 16.1 mph 24.2 mph 0.02 in Rain , Thunderstorm Rain
9:55 AM 51.8 °F - 51.8 °F 100% 29.98 in 0.2 mi ENE 15.0 mph 25.3 mph N/A Rain , Thunderstorm Rain
10:15 AM 51.8 °F - 51.8 °F 100% 29.99 in 0.2 mi East 16.1 mph 25.3 mph 0.01 in Rain Light Rain
10:35 AM 51.8 °F - 51.8 °F 100% 29.99 in 0.2 mi ENE 13.8 mph 25.3 mph 0.01 in Rain Light Rain
10:55 AM 50.0 °F - 50.0 °F 100% 29.99 in 0.2 mi ENE 12.7 mph 27.6 mph N/A Rain Light Rain
11:15 AM 51.8 °F - 51.8 °F 100% 30.00 in 0.2 mi ENE 15.0 mph 21.9 mph 0.06 in Rain Light Rain
11:35 AM 51.8 °F - 51.8 °F 100% 30.00 in 0.2 mi East 6.9 mph 17.3 mph 0.06 in Rain Light Rain
11:55 AM 51.8 °F - 51.8 °F 100% 29.99 in 0.2 mi NE 6.9 mph - N/A Fog , Thunderstorm Fog
12:15 PM 51.8 °F - 51.8 °F 100% 29.99 in 0.2 mi NE 8.1 mph - N/A Rain Light Rain
12:35 PM 51.8 °F - 51.8 °F 100% 29.99 in 0.5 mi North 6.9 mph - 0.03 in Rain Light Rain
12:55 PM 46.4 °F 42.9 °F 46.4 °F 100% 29.98 in 0.5 mi NNW 6.9 mph 18.4 mph 0.01 in Rain , Thunderstorm Light Thunderstorms and Rain
1:15 PM 46.4 °F 41.9 °F 46.4 °F 100% 30.00 in 0.5 mi West 9.2 mph - 0.06 in Rain , Thunderstorm Light Thunderstorms and Rain
1:35 PM 46.4 °F 41.5 °F 46.4 °F 100% 30.00 in 0.2 mi West 10.4 mph - 0.08 in Rain Light Rain
1:55 PM 44.6 °F 40.2 °F 44.6 °F 100% 30.01 in 1.8 mi WNW 8.1 mph - 0.10 in Rain Rain
2:15 PM 44.6 °F 40.2 °F 44.6 °F 100% 30.01 in 0.5 mi West 8.1 mph - 0.18 in Rain , Thunderstorm Light Thunderstorms and Rain
2:35 PM 46.4 °F 42.9 °F 46.4 °F 100% 30.01 in 0.8 mi West 6.9 mph - 0.24 in Rain , Thunderstorm Light Thunderstorms and Rain
2:55 PM 46.4 °F 45.2 °F 46.4 °F 100% 30.00 in 7.0 mi North 3.5 mph - 0.01 in Rain , Thunderstorm Heavy Thunderstorms and Rain
3:15 PM 44.6 °F 42.2 °F 44.6 °F 100% 29.99 in 10.0 mi North 4.6 mph - 0.04 in Rain Light Rain
3:35 PM 44.6 °F - 44.6 °F 100% 29.99 in 10.0 mi Calm Calm - 0.06 in Rain Light Rain
3:55 PM 44.6 °F 42.2 °F 44.6 °F 100% 29.99 in 10.0 mi NNE 4.6 mph - 0.03 in Rain Light Rain
4:15 PM 44.6 °F 41.4 °F 44.6 °F 100% 29.98 in 10.0 mi NNW 5.8 mph - 0.09 in Rain Light Rain
4:35 PM 44.6 °F 42.2 °F 44.6 °F 100% 29.98 in 7.0 mi North 4.6 mph - 0.03 in Rain , Thunderstorm Light Thunderstorms and Rain
5:15 PM 44.6 °F 40.2 °F 44.6 °F 100% 29.97 in 10.0 mi NNW 8.1 mph - 0.12 in Rain Light Rain
6:35 PM 46.4 °F 41.9 °F 46.4 °F 100% 29.96 in 10.0 mi NNE 9.2 mph - 0.06 in Rain Rain
6:36 PM 46.4 °F 42.4 °F 46.4 °F 100% 29.96 in 10.0 mi ENE 8.1 mph - 0.06 in Rain Rain
6:55 PM 46.4 °F 42.4 °F 44.6 °F 93% 29.96 in 10.0 mi NE 8.1 mph - N/A   Drizzle
7:15 PM 46.4 °F 42.9 °F 44.6 °F 93% 29.96 in 10.0 mi NNE 6.9 mph - N/A   Overcast
7:35 PM 46.4 °F - 44.6 °F 93% 29.97 in 10.0 mi Calm Calm - N/A   Overcast
8:36 PM 44.6 °F 43.1 °F 44.6 °F 100% 29.98 in 10.0 mi WNW 3.5 mph - N/A   Mostly Cloudy
8:55 PM 44.6 °F 43.1 °F 44.6 °F 100% 29.98 in 10.0 mi NNW 3.5 mph - N/A Thunderstorm Overcast
9:36 PM 46.4 °F - 44.6 °F 93% 29.99 in 10.0 mi Calm Calm - N/A   Overcast
10:16 PM 46.4 °F 43.5 °F 44.6 °F 93% 29.97 in 10.0 mi NW 5.8 mph - N/A Rain Rain
10:56 PM 44.6 °F 42.2 °F 44.6 °F 100% 29.98 in 10.0 mi ESE 4.6 mph - N/A   Scattered Clouds
11:15 PM 44.6 °F 43.1 °F 44.6 °F 100% 29.98 in 10.0 mi East 3.5 mph - N/A   Clear
11:35 PM 44.6 °F 42.2 °F 44.6 °F 100% 29.98 in 10.0 mi East 4.6 mph - N/A   Clear
11:55 PM 44.6 °F 43.1 °F 44.6 °F 100% 29.97 in 10.0 mi East 3.5 mph - N/A   Scattered Clouds